Location: Hilton Head Island
(32.2163°N, 80.7526°W)
Time: 11:43:02
(UTC-04:00)

S-56A Canister/Altair - Pass Details

Date: 24 February 2026
Orbit: 633 x 2484 km, 38.9° (Epoch: 10 March)

Event Time Altitude Azimuth Distance (km) Brightness Sun altitude
Exits shadow 02:28:09 16° 110° (ESE) 3,522 11.0 -55.5°
Drops below altitude 10° 02:29:56 10° 111° (ESE) 4,099 11.4 -55.2°
Sets 02:33:55 0° 112° (ESE) 5,372 12.1 -54.5°
